When you browse on this site, cookies collect data to enhance your experience and personalize the content and advertising you see.
Visit our Privacy Policy to learn more. By continuing to use the site, you agree to this use of cookies and data.
  • en Suisse
  • Liste des pays
  • À 7 jours
  • Température de l'eau
  • Carte satellitaire
  • Carte météo
  • Widgets météo
  • user-avatar
    Se connecter

    Météo par heure à Yangchun

    Ce jour, 23 Juillet, Mardi

    Heure Température Précipitation Vent Pression Humidité
    00:00 +28°C° 0.1 mm 1 m/s 751 mmHg 95%
    01:00 +26°C° 0 mm 0 m/s 751 mmHg 94%
    02:00 +26°C° 0.1 mm 0 m/s 750 mmHg 94%
    03:00 +28°C° 0.1 mm 1 m/s 750 mmHg 95%
    04:00 +28°C° 0.1 mm 1 m/s 750 mmHg 95%
    05:00 +28°C° 0.1 mm 1 m/s 750 mmHg 93%
    06:00 +29°C° 0.1 mm 1 m/s 751 mmHg 90%
    07:00 +30°C° 0 mm 1 m/s 751 mmHg 88%
    08:00 +31°C° 0 mm 1 m/s 751 mmHg 82%
    09:00 +32°C° 0 mm 2 m/s 751 mmHg 75%
    10:00 +34°C° 0 mm 2 m/s 751 mmHg 68%
    11:00 +35°C° 0 mm 3 m/s 751 mmHg 67%
    12:00 +35°C° 0 mm 3 m/s 750 mmHg 66%
    13:00 +36°C° 0 mm 3 m/s 750 mmHg 63%
    14:00 +35°C° 0 mm 3 m/s 750 mmHg 66%
    15:00 +35°C° 0 mm 3 m/s 749 mmHg 69%
    16:00 +34°C° 0 mm 3 m/s 749 mmHg 72%
    17:00 +33°C° 0 mm 3 m/s 749 mmHg 78%
    18:00 +30°C° 0 mm 2 m/s 750 mmHg 85%
    19:00 +29°C° 0 mm 2 m/s 750 mmHg 91%
    20:00 +29°C° 0.1 mm 1 m/s 750 mmHg 92%
    21:00 +28°C° 0.1 mm 1 m/s 751 mmHg 93%
    22:00 +28°C° 0.1 mm 1 m/s 751 mmHg 94%
    23:00 +28°C° 0 mm 1 m/s 751 mmHg 94%

    Demain, 24 Juillet, Mercredi

    Heure Température Précipitation Vent Pression Humidité
    00:00 +28°C° 0 mm 1 m/s 751 mmHg 93%
    01:00 +26°C° 0 mm 0 m/s 751 mmHg 93%
    02:00 +25°C° 0 mm 0 m/s 750 mmHg 93%
    03:00 +25°C° 0 mm 0 m/s 750 mmHg 93%
    04:00 +25°C° 0 mm 0 m/s 750 mmHg 93%
    05:00 +26°C° 0 mm 0 m/s 750 mmHg 90%
    06:00 +29°C° 0 mm 1 m/s 751 mmHg 87%
    07:00 +30°C° 0 mm 1 m/s 751 mmHg 83%
    08:00 +31°C° 0.6 mm 1 m/s 751 mmHg 79%
    09:00 +32°C° 0.6 mm 2 m/s 751 mmHg 75%
    10:00 +34°C° 0.6 mm 2 m/s 752 mmHg 71%
    11:00 +34°C° 0.9 mm 3 m/s 751 mmHg 72%
    12:00 +34°C° 0.9 mm 3 m/s 751 mmHg 72%
    13:00 +35°C° 0.9 mm 4 m/s 751 mmHg 72%
    14:00 +34°C° 0.3 mm 4 m/s 750 mmHg 73%
    15:00 +34°C° 0.3 mm 3 m/s 750 mmHg 73%
    16:00 +34°C° 0.3 mm 3 m/s 749 mmHg 73%
    17:00 +33°C° 0 mm 3 m/s 750 mmHg 79%
    18:00 +30°C° 0 mm 2 m/s 750 mmHg 85%
    19:00 +29°C° 0 mm 1 m/s 751 mmHg 91%
    20:00 +29°C° 0 mm 1 m/s 751 mmHg 92%
    21:00 +29°C° 0 mm 1 m/s 752 mmHg 94%
    22:00 +28°C° 0 mm 1 m/s 752 mmHg 95%
    23:00 +28°C° 0.1 mm 1 m/s 752 mmHg 95%

    Après-demain, 25 Juillet, Jeudi

    Heure Température Précipitation Vent Pression Humidité
    00:00 +28°C° 0.1 mm 1 m/s 752 mmHg 95%
    01:00 +28°C° 0.1 mm 1 m/s 752 mmHg 95%
    02:00 +26°C° 0 mm 0 m/s 752 mmHg 95%
    03:00 +26°C° 0 mm 0 m/s 752 mmHg 95%
    04:00 +26°C° 0 mm 0 m/s 752 mmHg 95%
    05:00 +27°C° 0.1 mm 0 m/s 752 mmHg 91%
    06:00 +30°C° 0.1 mm 1 m/s 753 mmHg 87%
    07:00 +30°C° 0.1 mm 1 m/s 753 mmHg 84%
    08:00 +31°C° 0.1 mm 2 m/s 753 mmHg 79%
    09:00 +32°C° 0.1 mm 2 m/s 753 mmHg 75%
    10:00 +34°C° 0.1 mm 3 m/s 753 mmHg 71%
    11:00 +34°C° 0.7 mm 3 m/s 753 mmHg 72%
    12:00 +34°C° 0.7 mm 3 m/s 752 mmHg 74%
    13:00 +34°C° 0.7 mm 4 m/s 752 mmHg 76%
    14:00 +34°C° 0.5 mm 4 m/s 751 mmHg 76%
    15:00 +34°C° 0.5 mm 3 m/s 751 mmHg 76%
    16:00 +34°C° 0.5 mm 3 m/s 750 mmHg 77%
    17:00 +31°C° 0 mm 3 m/s 751 mmHg 81%
    18:00 +30°C° 0 mm 2 m/s 751 mmHg 85%
    19:00 +29°C° 0 mm 1 m/s 751 mmHg 89%
    20:00 +29°C° 0 mm 1 m/s 752 mmHg 90%
    21:00 +28°C° 0 mm 1 m/s 752 mmHg 92%
    22:00 +28°C° 0 mm 1 m/s 753 mmHg 93%
    23:00 +26°C° 0 mm 0 m/s 753 mmHg 94%

    26 Juillet, Vendredi

    Heure Température Précipitation Vent Pression Humidité
    00:00 +26°C° 0 mm 0 m/s 752 mmHg 95%
    01:00 +26°C° 0 mm 0 m/s 752 mmHg 95%
    02:00 +26°C° 0 mm 0 m/s 752 mmHg 96%
    03:00 +25°C° 0 mm 0 m/s 752 mmHg 96%
    04:00 +25°C° 0 mm 0 m/s 751 mmHg 96%
    05:00 +26°C° 0 mm 0 m/s 752 mmHg 93%
    06:00 +27°C° 0 mm 0 m/s 752 mmHg 90%
    07:00 +28°C° 0 mm 0 m/s 752 mmHg 87%
    08:00 +31°C° 0 mm 1 m/s 752 mmHg 81%
    09:00 +32°C° 0 mm 1 m/s 752 mmHg 74%
    10:00 +35°C° 0 mm 2 m/s 752 mmHg 68%
    11:00 +35°C° 0.1 mm 2 m/s 752 mmHg 68%
    12:00 +35°C° 0.1 mm 3 m/s 751 mmHg 68%
    13:00 +36°C° 0.1 mm 3 m/s 751 mmHg 68%
    14:00 +35°C° 0.8 mm 3 m/s 750 mmHg 71%
    15:00 +34°C° 0.8 mm 3 m/s 750 mmHg 74%
    16:00 +34°C° 0.8 mm 3 m/s 750 mmHg 77%
    17:00 +33°C° 0 mm 3 m/s 750 mmHg 82%
    18:00 +30°C° 0 mm 2 m/s 750 mmHg 87%
    19:00 +29°C° 0 mm 2 m/s 751 mmHg 92%
    20:00 +29°C° 0 mm 1 m/s 751 mmHg 93%
    21:00 +29°C° 0 mm 1 m/s 751 mmHg 95%
    22:00 +28°C° 0 mm 1 m/s 752 mmHg 96%
    23:00 +28°C° 0 mm 1 m/s 751 mmHg 96%

    27 Juillet, Samedi

    Heure Température Précipitation Vent Pression Humidité
    00:00 +28°C° 0 mm 1 m/s 751 mmHg 96%
    01:00 +28°C° 0 mm 1 m/s 751 mmHg 97%
    02:00 +28°C° 0 mm 1 m/s 751 mmHg 97%
    03:00 +28°C° 0 mm 1 m/s 751 mmHg 96%
    04:00 +28°C° 0 mm 1 m/s 751 mmHg 96%
    05:00 +29°C° 0.1 mm 1 m/s 751 mmHg 93%
    06:00 +29°C° 0.1 mm 1 m/s 752 mmHg 90%
    07:00 +30°C° 0.1 mm 1 m/s 752 mmHg 87%
    08:00 +31°C° 0.1 mm 1 m/s 752 mmHg 81%
    09:00 +34°C° 0.1 mm 2 m/s 752 mmHg 74%
    10:00 +35°C° 0.1 mm 2 m/s 752 mmHg 68%
    11:00 +35°C° 0.2 mm 3 m/s 752 mmHg 68%
    12:00 +35°C° 0.2 mm 3 m/s 751 mmHg 67%
    13:00 +36°C° 0.2 mm 3 m/s 751 mmHg 66%
    14:00 +35°C° 0.5 mm 3 m/s 751 mmHg 70%
    15:00 +34°C° 0.5 mm 3 m/s 750 mmHg 73%
    16:00 +34°C° 0.5 mm 3 m/s 750 mmHg 76%
    17:00 +33°C° 0 mm 3 m/s 750 mmHg 81%
    18:00 +30°C° 0 mm 2 m/s 751 mmHg 86%
    19:00 +29°C° 0 mm 2 m/s 751 mmHg 91%
    20:00 +29°C° 0 mm 1 m/s 752 mmHg 92%
    21:00 +28°C° 0 mm 1 m/s 752 mmHg 94%
    22:00 +28°C° 0 mm 1 m/s 752 mmHg 95%
    23:00 +28°C° 0.1 mm 1 m/s 752 mmHg 95%

    28 Juillet, Dimanche

    Heure Température Précipitation Vent Pression Humidité
    00:00 +28°C° 0.1 mm 1 m/s 752 mmHg 96%
    01:00 +28°C° 0.1 mm 1 m/s 752 mmHg 96%
    02:00 +28°C° 0 mm 1 m/s 752 mmHg 96%
    03:00 +28°C° 0 mm 1 m/s 752 mmHg 96%
    04:00 +28°C° 0 mm 1 m/s 752 mmHg 96%
    05:00 +28°C° 0.1 mm 1 m/s 752 mmHg 92%
    06:00 +29°C° 0.1 mm 1 m/s 753 mmHg 89%
    07:00 +30°C° 0.1 mm 1 m/s 753 mmHg 85%
    08:00 +31°C° 0.1 mm 2 m/s 753 mmHg 79%
    09:00 +34°C° 0.1 mm 2 m/s 754 mmHg 73%
    10:00 +35°C° 0.1 mm 3 m/s 754 mmHg 67%
    11:00 +35°C° 0.2 mm 3 m/s 753 mmHg 67%
    12:00 +35°C° 0.2 mm 3 m/s 753 mmHg 66%
    13:00 +36°C° 0.2 mm 4 m/s 753 mmHg 66%
    14:00 +35°C° 0.3 mm 4 m/s 752 mmHg 68%
    15:00 +34°C° 0.3 mm 4 m/s 752 mmHg 71%
    16:00 +34°C° 0.3 mm 4 m/s 751 mmHg 73%
    17:00 +33°C° 0 mm 3 m/s 751 mmHg 78%
    18:00 +30°C° 0 mm 2 m/s 752 mmHg 83%
    19:00 +29°C° 0 mm 2 m/s 752 mmHg 88%
    20:00 +29°C° 0 mm 1 m/s 753 mmHg 90%
    21:00 +28°C° 0 mm 1 m/s 753 mmHg 92%
    22:00 +28°C° 0 mm 1 m/s 753 mmHg 94%
    23:00 +28°C° 0.1 mm 1 m/s 753 mmHg 94%
    Voir plus